Simultaneous Nadir Overpasses (SNOs) Predictions

Prediction of SNOs between AQUA and NOAA-19 Satellite Orbit:

Table of predicted SNOs for the next 14.0 days since TLE Epoch: 7/31/2020
Index Date (AQUA) Time (AQUA) Lat,Lon (AQUA) SZA (AQUA ) Date (NOAA-19) Time (NOAA-19) Lat,Lon (NOAA-19) SZA (NOAA-19 ) Distance(km) Time Diff (sec)
1 08/01/2020 15:57:45 79.63, -87.19 63.23 08/01/2020 15:56:50 79.64, -87.05 63.24 2.94 55
2 08/01/2020 16:47:11 -79.64, 80.38 116.76 08/01/2020 16:47:53 -79.66, 80.41 116.76 1.42 42
3 08/03/2020 21:31:24 -79.48, 10.50 116.44 08/03/2020 21:30:17 -79.42, 7.56 116.17 60.11 67
4 08/03/2020 22:20:56 79.65, 176.89 63.84 08/03/2020 22:21:07 79.63, 176.90 63.81 2.48 11
5 08/06/2020 03:54:39 -79.64, -86.48 115.58 08/06/2020 03:54:26 -79.63, -86.36 115.60 2.90 13
6 08/06/2020 04:44:09 79.74, 80.42 64.59 08/06/2020 04:45:17 79.81, 82.90 64.39 49.61 68
7 08/08/2020 09:28:23 79.62, 10.26 65.01 08/08/2020 09:27:40 79.62, 10.38 65.02 2.47 43
8 08/08/2020 10:17:49 -79.62, 177.86 114.98 08/08/2020 10:18:42 -79.63, 177.69 114.98 3.38 53
9 08/10/2020 15:02:06 -79.61, 106.89 114.37 08/10/2020 15:00:59 -79.59, 106.78 114.35 3.25 67
10 08/10/2020 15:51:34 79.64, -85.70 65.69 08/10/2020 15:51:57 79.61, -85.72 65.66 3.37 23
11 08/12/2020 21:25:16 -79.60, 11.20 113.72 08/12/2020 21:25:14 -79.61, 11.09 113.70 2.98 2
